Regional Weather Roundup
Issued by NWS Charleston, SC

Current Version | Previous Version | Text Only | Print | Product List | Glossary Off
Versions: 1 2 3 4 5 6 7 8 9 10 11 12 13 14 15 16 17 18 19 20 21 22 23 24 25 26 27 28 29 30 31 32 33 34 35 36 37 38 39 40 41 42 43 44 45 46 47 48 49 50

000
ASUS42 KCHS 071727
RWRCHS

REGIONAL WEATHER ROUNDUP
NATIONAL WEATHER SERVICE CHARLESTON SC
100 PM EDT TUE JUL 07 2015

NOTE: "FAIR" INDICATES FEW OR NO CLOUDS BELOW 12,000 FEET WITH NO
SIGNIFICANT WEATHER AND/OR OBSTRUCTIONS TO VISIBILITY.

NOT ALL STATIONS ARE QUALITY CONTROLLED BY THE NATIONAL
WEATHER SERVICE. USE DATA WITH CAUTION...ESPECIALLY
DEWPOINT OBSERVATIONS.

SCZ027-030-031-034>040-042>050-071800-
...SOUTHEAST SOUTH CAROLINA...

CITY           SKY/WX    TMP DP  RH WIND       PRES   REMARKS
N CHARLESTON   MOSUNNY   87  70  56 S7        30.14F HX  92
WATERFRONT PAR   N/A     84  75  74 S10       30.13S HX  92
MOUNT PLEASANT LGT RAIN  88  75  66 S10G17    30.14F HX  97
JOHNS ISLAND   FAIR      86  77  74 SE10      30.15S HX  97
PINOPOLIS      NOT AVBL
MONCKS CORNER  FAIR      82  73  74 NE3       30.14F
SUMMERVILLE    CLOUDY    84  72  65 CALM      30.15F
BEAUFORT MCAS  PTSUNNY   89  73  59 VRB6      30.14F HX  97
BEAUFORT ARPT  FAIR      88  73  62 S8        30.14S HX  96
HILTON HEAD IS MOSUNNY   88  75  66 S9        30.17F HX  97
WALTERBORO     MOSUNNY   86  68  54 SW6       30.14F
ALLENDALE      FAIR      90  72  55 W5        30.13F HX  96

...SOUTHERN MIDLANDS AND PEE DEE...

CITY           SKY/WX    TMP DP  RH WIND       PRES   REMARKS
GEORGETOWN     NOT AVBL
KINGSTREE      NOT AVBL
ORANGEBURG     MOSUNNY   88  71  57 SW8       30.13F HX  94
BARNWELL       CLOUDY    90  72  55 W6        30.14F HX  96
AIKEN          NOT AVBL
MANNING        FAIR      88  68  51 S8        30.13F HX  91
COLUMBIA       MOSUNNY   91  69  48 SW6       30.12F HX  96
SUMTER         MOSUNNY   89  69  50 S5        30.11F HX  93
FLORENCE       MOSUNNY   90  69  50 VRB5      30.13F HX  94
MYRTLE BEACH   MOSUNNY   88  73  62 S13       30.17F HX  96
N MYRTLE BEACH SUNNY     85  76  74 S15       30.15F HX  94

$$

GAZ063-065-086>088-099>101-113>116-118-119-134>141-150-071800-
...SOUTHEAST GEORGIA...

CITY           SKY/WX    TMP DP  RH WIND       PRES   REMARKS
SAVANNAH ARPT  PTSUNNY   87  69  54 SW5       30.15F HX  91
HUNTER AAF     MOSUNNY   89  74  61 SW8       30.13F HX  97
FORT STEWART   MOSUNNY   89  70  52 SW8       30.14F HX  95
STATESBORO     NOT AVBL
SYLVANIA       PTSUNNY   91  74  58 W7        30.15F HX 100
CLAXTON        FAIR      88  73  62 W7        30.15F HX  96

...CSRA...CENTRAL AND FAR SOUTHEAST GEORGIA...

CITY           SKY/WX    TMP DP  RH WIND       PRES   REMARKS
THOMSON        MOSUNNY   90  74  58 W5        30.19F HX  99
AUGUSTA-BUSH   MOSUNNY   89  70  53 W7        30.13F HX  94
AUGUSTA-DANIEL MOSUNNY   89  70  53 SW9       30.15F HX  94
SWAINSBORO     FAIR      90  72  55 W3        30.16F HX  96
VIDALIA        PTSUNNY   88  70  55 W5        30.16F HX  92
EASTMAN        FAIR      88  69  53 CALM      30.19F HX  92
HAZLEHURST     FAIR      89  72  57 CALM      30.15F HX  95
ALMA           MOSUNNY   86  71  60 NW8       30.17F HX  91
WAYCROSS       NOT AVBL
JESUP          PTSUNNY   90  73  58 SW5       30.16F HX  98
BAXLEY         PTSUNNY   90  72  55 W5        30.16F HX  96
BRUNSWICK      PTSUNNY   90  72  55 S7        30.16F HX  96
SAINT SIMONS   SUNNY     85  72  65 S9        30.17F HX  91

$$

SCZ027-028-034-036>038-045-046-048>050-GAZ119-141-071800-
...LAKE AND SUPPLEMENTAL COASTAL OBSERVATIONS...

STATION/POSITION TIME  TEMP    WIND        PRES    WAVE   SWELL
                       AIR SEA DIR/SP/G            HT/PER HT/PER/DIR
                 (UTC) (F)     (DEG/KT/KT) (MB)    (FT/S) (FT/S/D)
UPR LAKE MARION  NOT AVBL
WINYAH BAY       1600   83     150/ 10     1020.0S
LAKE MURRAY      1700   86     150/  3/  5 1019.3F
ACE BASIN NERRS  NOT AVBL
FORT PULASKI     1700   85 83  160/  5/ 10 1021.6F
SAPELO ISLAND    1700   89     150/  6     1021.0F

$$

ANZ835-935-AMZ111-154-330-350-352-354-370-450-454-472-071800-
...C-MAN AND BUOY OBSERVATIONS...

STATION/POSITION TIME  TEMP    WIND        PRES    WAVE   SWELL
                       AIR SEA DIR/SP/G            HT/PER HT/PER/DIR
                 (UTC) (F)     (DEG/KT/KT) (MB)    (FT/S) (FT/S/D)
BUOY 41004       1650   81 83  200/  8/ 10 1021.0F   3/ 8   3/ 8
BUOY 41008       1650   77 79  210/  8/ 10 1021.7F   2/ 9   2/100/ 9
FOLLY BEACH CMAN 1700   83     180/ 10/ 11 1021.2F
CAPERS NEARSHORE 1608   82     220/ 10/ 12 1021.5S
FRIPP NEARSHORE  1600   84     200/ 10/ 12 1021.2F


STATION/POSITION TIME  TEMP    WIND        PRES    WAVE   SWELL
                       AIR SEA DIR/SP/G            HT/PER HT/PER/DIR
                 (UTC) (F)     (DEG/KT/KT) (MB)    (FT/S) (FT/S/D)
5E ST. MARYS GA  1621      79                N/A     2/ 8
FRYING PAN BUOY  1650   81 81  200/  6/  8 1021.8F   3/ 8   3/130/ 8
BUOY 41025       1650   81 83  220/ 14/ 16 1020.8F   3/ 9   2/130/ 9
CAPE LOOKOUT NC  1700   82     210/ 10/ 13 1020.9F
BUOY 41002       1650   83 81  210/ 10/ 10 1023.7R   4/ 9   3/110/ 9
BUOY 41010       1620   82 83  160/  4/  4 1022.9F
ST AUGUSTINE FL  1700   76 74  100/ 10/ 10 1022.5F


$$


USA.gov is the U.S. government's official web portal to all federal, state and local government web resources and services.